Regional Weather Roundup
Issued by NWS

Home | Current Version | Previous Version | Graphics & Text | Print | Product List | Glossary On
Versions: 1 2 3 4 5 6 7 8 9 10 11 12 13 14 15 16 17 18 19 20 21 22 23 24 25 26 27 28 29 30 31 32 33 34 35 36 37 38 39 40 41 42 43 44 45 46 47 48 49 50
000
ASUS45 KBOU 210707
RWRCO

WEATHER ROUNDUP FOR COLORADO
NATIONAL WEATHER SERVICE DENVER/BOULDER CO
100 AM MDT MON JUL 21 2014

NOTE: "FAIR" INDICATES FEW OR NO CLOUDS BELOW 12000 FEET WITH NO
SIGNIFICANT WEATHER AND/OR OBSTRUCTIONS TO VISIBILITY.

COZ001>005-013-030-031-210800-
...NORTHWEST COLORADO...

CITY           SKY/WX    TMP DP  RH WIND       PRES   REMARKS
CRAIG          PTCLDY    52  48  86 CALM      30.21R
HAYDEN         PTCLDY    63  45  51 E12       30.22F
MEEKER         CLEAR     58  45  62 NE3       30.22S
MOUNT WERNER   PTCLDY    57  34  41 E9        30.55F
STEAMBOAT SPGS PTCLDY    62  45  53 CALM      30.26S
WALDEN         MOCLDY    52  41  66 E6        30.36S
$$

COZ006>008-011-210800-
...WEST CENTRAL VALLEYS...

CITY           SKY/WX    TMP DP  RH WIND       PRES   REMARKS
GRAND JUNCTION PTCLDY    74  44  34 E12       30.08S
MONTROSE       PTCLDY    69  47  45 S7        30.19S
EAGLE          CLEAR     57  46  67 E6        30.31R
RIFLE          CLEAR     64  46  52 SE10      30.17R
DELTA          PTCLDY    73  47  38 E7        30.15R
NUCLA          PTCLDY    72  37  28 E9        30.22R
$$

COZ017>023-064>068-210800-
...SOUTHWEST COLORADO...

CITY           SKY/WX    TMP DP  RH WIND       PRES   REMARKS
DURANGO        MOCLDY    69  43  38 NE6       30.27R
CORTEZ         CLEAR     63  38  39 E9        30.21R
PAGOSA SPRINGS MOCLDY    63  47  57 CALM      30.38S
TELLURIDE      MOCLDY    59  36  41 E6        30.46S
WOLF CREEK PAS NOT AVBL
$$

COZ009-010-012-014-032>034-037-058>063-210800-
...CENTRAL COLORADO...

CITY           SKY/WX    TMP DP  RH WIND       PRES   REMARKS
ASPEN          PTCLDY    52  46  80 CALM      30.36R
BUENA VISTA    PTCLDY    56  46  69 NW10      30.39F
COPPER MTN     PTCLDY    55  32  41 S20       30.67F
BERTHOUD PASS  FAIR      46  32  57 W12       30.71S
COTTONWOOD PAS PTCLDY    61  36  39 W7        30.52S
GUNNISON       CLEAR     54  43  66 E3        30.41S
KREMMLING      CLEAR     50  45  81 CALM      30.36S
LEADVILLE      PTCLDY    41  39  93 NE3       30.53S
SALIDA         PTCLDY   N/A N/A N/A NW6       30.43S
SUNLIGHT       CLEAR     54  39  58 CALM      30.58S
WILKERSON PASS NOT AVBL
$$

COZ069>075-210800-
...SAN LUIS VALLEY/SANGRE DE CRISTO MOUNTAINS...

CITY           SKY/WX    TMP DP  RH WIND       PRES   REMARKS
ALAMOSA        CLOUDY    57  53  86 S5        30.35S
LA VETA PASS   CLOUDY    55  39  54 W7        30.54F
SAGUACHE       PTCLDY    57  43  58 N3        30.39F
$$

COZ035-036-038>040-210800-
...NORTHERN COLORADO FRONT RANGE...

CITY           SKY/WX    TMP DP  RH WIND       PRES   REMARKS
DENVER INTL AP MOCLDY    70  48  45 S10       30.10S
DMNS CITY PARK   N/A     71  47  43 S8        30.10S
AURORA         PTCLDY    69  48  46 SW10      30.13S
FRONT RANGE AP NOT AVBL
ERIE MUNI ARPT PTCLDY    63  51  65 CALM      30.07F
BOULDER MUN AP PTCLDY    72  43  35 N3        30.08S
CENTENNIAL     MOCLDY    73  44  35 SW15      30.14F
BROOMFIELD     PTCLDY    70  43  37 CALM      30.12S
FORT COLLINS   CLEAR     64  54  68 CALM      30.08S
LONGMONT       CLEAR     64  52  63 W5        30.08F
$$

COZ041-046-047-076>085-087-088-210800-
...PIKES PEAK/PALMER DIVIDE AND SOUTHERN FOOTHILLS...

CITY           SKY/WX    TMP DP  RH WIND       PRES   REMARKS
COLO. SPRINGS  MOCLDY    66  48  52 NW5       30.20S
A. F. ACADEMY  PTCLDY    64  47  54 N5        30.22F
ELLICOTT       PTCLDY    66  51  58 CALM      30.17F
FALCON         PTCLDY    65  44  47 W8        30.25F
FORT CARSON    PTCLDY    68  48  50 NW6       30.16F
LIMON          MOCLDY    67  47  48 W6        30.12S
MONUMENT HILL  MOCLDY    63  45  51 SW9       30.24F
TRINIDAD       MOCLDY    72  47  40 SW8       30.16S
$$

COZ042>045-048>051-090-091-210800-
...NORTHEAST COLORADO...

CITY           SKY/WX    TMP DP  RH WIND       PRES   REMARKS
GREELEY ARPT   PTCLDY    64  54  68 NW6       30.05R
AKRON          CLOUDY    75  48  38 SW9       30.02F
BURLINGTON     MOCLDY    71  54  54 SW7       30.02F
WRAY             N/A     75  51  44 SW6       29.94S
STERLING       CLOUDY    72  57  60 W8        29.94F
HOLYOKE        MOCLDY    73  59  60 SW3       29.92F
FORT MORGAN    CLOUDY    71  50  48 W5        30.01F
$$

COZ086-089-092>099-210800-
...SOUTHEAST COLORADO...

CITY           SKY/WX    TMP DP  RH WIND       PRES   REMARKS
PUEBLO         CLOUDY    79  47  32 NW13      30.06F
LA JUNTA       MOCLDY    72  60  66 N9        30.02S
LAMAR          MOCLDY    80  61  52 SW13      29.98R
SPRINGFIELD      N/A     72  63  73 S9        30.07R
$$


USA.gov is the U.S. government's official web portal to all federal, state and local government web resources and services.